• Currently

    Reported at Minneapolis, Minneapolis-St. Paul International Airport, MN
    6:53 PM CST WED APR 26 2017
  • 39°F4°C
  • Drizzle
    Drizzle
  • Feels Like:33°F0°CDew Point:32°F0°CHumidity:75% Winds:N 12 mph 19 kph
    Pressure:29.56 in1001 hPaVisibility:10.00 miles16090.00 meters
Time Weather Temp Dew Point
Humidity Winds Visibility Pressure Precipitation
1 hr 24 hr
Saturday, April 15
23:53 23:53 Cloudy With Light Rain Cloudy With Light Rain 58°F14°C 55°F13°C 90% SE 12 mphSE 19 kph 3.0 miles4.8 km 29.83 in1010 hPa 0.01 in6.45 mm --
22:53 22:53 Cloudy With Mist And Fog Cloudy With Mist And Fog 58°F14°C 54°F12°C 87% SE 12 mphSE 19 kph 6.0 miles9.7 km 29.85 in1011 hPa 0.00 in0.00 mm --
22:35 22:35 Cloudy With Mist And Fog Cloudy With Mist And Fog 58°F14°C 54°F12°C 87% SE 14 mphSE 22 kph 6.0 miles9.7 km 29.85 in1011 hPa 0.00 in0.00 mm --
21:53 21:53 Cloudy Cloudy 58°F14°C 54°F12°C 87% SE 9 mphSE 15 kph 7.0 miles11.3 km 29.88 in1012 hPa 0.01 in6.45 mm --
21:37 21:37 Cloudy Cloudy 58°F14°C 54°F12°C 87% SE 13 mphSE 20 kph 7.0 miles11.3 km 29.88 in1012 hPa 0.01 in6.45 mm --
20:53 20:53 Cloudy With Light Rain Cloudy With Light Rain 59°F15°C 54°F12°C 83% SSE 12 mphSSE 19 kph 3.0 miles4.8 km 29.88 in1012 hPa 0.02 in12.90 mm --
20:36 20:36 Cloudy With Rain Cloudy With Rain 59°F15°C 54°F12°C 82% SSE 9 mphSSE 15 kph 6.0 miles9.7 km 29.88 in1012 hPa 0.00 in0.00 mm --
19:53 19:53 Cloudy With Haze Cloudy With Haze 59°F15°C 54°F12°C 83% SE 13 mphSE 20 kph 5.0 miles8.0 km 29.88 in1012 hPa 0.01 in6.45 mm --
19:51 19:51 Cloudy With Haze Cloudy With Haze 59°F15°C 54°F12°C 82% SE 15 mphSE 24 kph 4.0 miles6.4 km 29.88 in1012 hPa 0.01 in6.45 mm --
19:42 19:42 Cloudy With Haze Cloudy With Haze 59°F15°C 54°F12°C 82% SE 13 mphSE 20 kph 2.5 miles4.0 km 29.88 in1012 hPa 0.00 in0.00 mm --
19:14 19:14 Cloudy With Light Rain Cloudy With Light Rain 58°F14°C 54°F12°C 87% SE 13 mphSE 20 kph 4.0 miles6.4 km 29.91 in1013 hPa 0.01 in6.45 mm --
18:53 18:53 Cloudy With Light Rain Cloudy With Light Rain 59°F15°C 54°F12°C 83% SE 15 mphSE 24 kph 2.5 miles4.0 km 29.91 in1013 hPa 0.02 in12.90 mm --
17:53 17:53 Cloudy Cloudy 63°F17°C 52°F11°C 68% SE 17 mphSE 28 kph 10.0 miles16.1 km 29.91 in1013 hPa 0.00 in0.00 mm --
16:53 16:53 Mostly Cloudy Mostly Cloudy 61°F16°C 52°F11°C 72% ESE 14 mphESE 22 kph 9.0 miles14.5 km 29.94 in1014 hPa 0.00 in0.03 mm --
15:53 15:53 Cloudy With Light Rain Cloudy With Light Rain 62°F17°C 53°F12°C 73% ESE 15 mphESE 24 kph 5.0 miles8.0 km 29.94 in1014 hPa 0.01 in6.45 mm --
14:53 14:53 Mostly Cloudy Mostly Cloudy 64°F18°C 50°F10°C 60% SE 18 mphSE 30 kph 9.0 miles14.5 km 29.97 in1015 hPa 0.00 in0.00 mm --
13:53 13:53 Mostly Cloudy Mostly Cloudy 65°F18°C 51°F11°C 61% SE 17 mphSE 28 kph 8.0 miles12.9 km 30 in1016 hPa 0.00 in0.00 mm --
12:53 12:53 Mostly Cloudy Mostly Cloudy 60°F16°C 49°F9°C 67% SSE 15 mphSSE 24 kph 7.0 miles11.3 km 30.03 in1017 hPa 0.00 in0.03 mm --
11:53 11:53 Cloudy Cloudy 55°F13°C 48°F9°C 77% SE 13 mphSE 20 kph 8.0 miles12.9 km 30.06 in1018 hPa 0.02 in12.90 mm --
10:53 10:53 Mostly Cloudy Mostly Cloudy 54°F12°C 45°F7°C 72% SSE 14 mphSSE 22 kph 7.0 miles11.3 km 30.09 in1019 hPa 0.00 in0.00 mm --
09:53 09:53 Mostly Cloudy Mostly Cloudy 55°F13°C 44°F7°C 67% SE 12 mphSE 19 kph 8.0 miles12.9 km 30.09 in1019 hPa 0.00 in0.00 mm --
08:53 08:53 Mostly Cloudy Mostly Cloudy 51°F11°C 42°F6°C 71% SE 17 mphSE 28 kph 9.0 miles14.5 km 30.12 in1020 hPa 0.00 in0.00 mm --
07:53 07:53 Cloudy Cloudy 50°F10°C 41°F5°C 71% ESE 13 mphESE 20 kph 10.0 miles16.1 km 30.12 in1020 hPa 0.00 in0.00 mm --
06:53 06:53 Cloudy Cloudy 48°F9°C 41°F5°C 77% ESE 8 mphESE 13 kph 10.0 miles16.1 km 30.15 in1021 hPa 0.00 in0.00 mm --
05:53 05:53 Cloudy Cloudy 48°F9°C 41°F5°C 77% ESE 12 mphESE 19 kph 10.0 miles16.1 km 30.15 in1021 hPa 0.00 in0.00 mm --
04:53 04:53 Cloudy Cloudy 49°F9°C 42°F6°C 77% ESE 12 mphESE 19 kph 10.0 miles16.1 km 30.15 in1021 hPa 0.00 in0.00 mm --
03:53 03:53 Mostly Cloudy Mostly Cloudy 49°F9°C 42°F6°C 77% ESE 14 mphESE 22 kph 10.0 miles16.1 km 30.15 in1021 hPa 0.00 in0.00 mm --
02:53 02:53 Mostly Cloudy Mostly Cloudy 49°F9°C 42°F6°C 77% E 13 mphE 20 kph 10.0 miles16.1 km 30.18 in1022 hPa 0.00 in0.00 mm --
01:53 01:53 Mostly Clear Mostly Clear 49°F9°C 42°F6°C 77% ESE 13 mphESE 20 kph 10.0 miles16.1 km 30.18 in1022 hPa 0.00 in0.00 mm --
00:53 00:53 Mostly Clear Mostly Clear 50°F10°C 42°F6°C 74% ESE 12 mphESE 19 kph 10.0 miles16.1 km 30.21 in1023 hPa 0.00 in0.00 mm --